Hourly Data Report for October 14, 2015

All times are specified in Local Standard Time (LST). Add 1 hour to adjust for Daylight Saving Time where and when it is observed.

RANKIN INLET A
NUNAVUT

62°48'38.000" N
92°06'53.000" W
32.30 m
2303405
71083
YRT

Download Data

Hourly Data (October 2015)
Hourly Data Report for October 14, 2015
Temp Definition
°C
Dew Point Temp Definition
°C
Rel Hum Definition
%
Wind Dir Definition
10's deg

Wind Spd Definition
km/h
Visibility Definition
km
Stn Press Definition
kPa
Hmdx Definition


Wind Chill Definition


Weather Definition


TIME
00:00 Legend Double Dagger -7.4 -10.3 80 32 14 24.1 100.45   -13 Cloudy
01:00 Legend Double Dagger -7.8 -10.1 84 31 13 24.1 100.41   -14 LegendNANA
02:00 Legend Double Dagger -8.3 -9.7 90 34 14 24.1 100.40   -14 LegendNANA
03:00 Legend Double Dagger -8.4 -10.3 86 34 17 24.1 100.40   -15 Snow
04:00 Legend Double Dagger -8.3 -10.1 87 1 17 24.1 100.43   -15 Snow
05:00 Legend Double Dagger -8.9 -10.5 88 1 16 24.1 100.47   -16 Snow
06:00 Legend Double Dagger -8.7 -10.3 88 1 22 24.1 100.49   -17 Snow
07:00 Legend Double Dagger -9.2 -10.6 90 3 21 16.1 100.51   -17 Snow
08:00 Legend Double Dagger -9.0 -10.2 91 36 26 16.1 100.54   -18 Snow
09:00 Legend Double Dagger -8.5 -11.0 82 1 22 16.1 100.55   -16 Snow
10:00 Legend Double Dagger -7.8 -11.8 73 2 22 24.1 100.57   -15 LegendNANA
11:00 Legend Double Dagger -7.2 -11.1 74 1 30 24.1 100.59   -16 LegendNANA
12:00 Legend Double Dagger -7.2 -11.1 74 35 26 24.1 100.62   -15 Mostly Cloudy
13:00 Legend Double Dagger -7.1 -11.3 72 36 23 24.1 100.64   -15 LegendNANA
14:00 Legend Double Dagger -7.1 -10.8 75 36 34 24.1 100.67   -16 Snow
15:00 Legend Double Dagger -7.5 -11.4 74 35 32 16.1 100.73   -17 Snow
16:00 Legend Double Dagger -7.8 -11.5 75 35 37 16.1 100.77   -18 Snow
17:00 Legend Double Dagger -8.3 -12.2 74 36 34 16.1 100.82   -18 Snow
18:00 Legend Double Dagger -8.6 -12.3 75 35 35 16.1 100.88   -18 Snow
19:00 Legend Double Dagger -8.7 -12.5 74 35 37 16.1 100.91   -19 Snow
20:00 Legend Double Dagger -8.7 -12.2 76 36 37 16.1 100.94   -19 Snow
21:00 Legend Double Dagger -9.2 -12.7 76 35 37 16.1 100.98   -19 Snow
22:00 Legend Double Dagger -9.2 -12.5 77 35 36 12.9 100.96   -19 Snow
23:00 Legend Double Dagger -9.3 -12.8 76 35 39 16.1 100.98   -20 Snow

Notes on Data Quality.

Legend

  • E = Estimated
  • M = Missing
  • NA = Not Available
  • ‡ = Partner data that is not subject to review by the National Climate Archives
Date modified: